Tracking 18624 objects as of 28-April-2017
HD Live streaming from Space Station
objects crossing your sky now

GLOBALSTAR M086

Track GLOBALSTAR M086 now!
10-day predictions
GLOBALSTAR M086 is classified as:


NORAD ID: 38045
Int'l Code: 2011-080F
Perigee: 1,420.0 km
Apogee: 1,421.5 km
Inclination: 52.0 °
Period: 114.1 minutes
Semi major axis: 7791 km
RCS: 4.511 m2 (large)
Launch date: December 28, 2011
Source: Globalstar (GLOB)
Launch site: TYURATAM MISSILE AND SPACE COMPLEX (TTMTR)
Your satellite tracking list
Your tracking list is empty





NASA's NSSDC Master Catalog

Two Line Element Set (TLE):
1 38045U 11080F   17117.93250727 -.00000112 +00000-0 -44329-4 0  9994
2 38045 051.9910 050.8121 0001010 214.9667 182.2035 12.62265693248200
Source of the keplerian elements: AFSPC